Regional Weather Roundup
Issued by NWS State College, PA

Home | Current Version | Previous Version | Graphics & Text | Print | Product List | Glossary Off
Versions: 1 2 3 4 5 6 7 8 9 10 11 12 13 14 15 16 17 18 19 20 21 22 23 24 25 26 27 28 29 30 31 32 33 34 35 36 37 38 39 40 41 42 43 44 45 46 47 48 49 50

000
ASUS41 KCTP 251310
RWRCTP

REGIONAL WEATHER ROUNDUP
NATIONAL WEATHER SERVICE STATE COLLEGE PA
900 AM EDT TUE APR 25 2017

Note: "fair" indicates few or no clouds below 12,000 feet with no
significant weather and/or obstructions to visibility.

* = STATION THAT DOES NOT REPORT PRECIPITATION /E.G. RAIN...SNOW...ETC/
    THUNDER OR FOG.

PAZ002>004-007>009-013>016-020>023-029>032-251400-
WESTERN PENNSYLVANIA

CITY           SKY/WX    TMP DP  RH WIND       PRES   REMARKS
ERIE           LGT RAIN  54  48  80 VRB3      29.94S
MEADVILLE      LGT RAIN  51  46  83 VRB3      29.94S
FRANKLIN*      CLOUDY    48  43  81 E8        29.97S
NEW CASTLE     LGT RAIN  52  49  89 E9        29.95R
BEAVER COUNTY  NOT AVBL
BUTLER*        CLOUDY    52  48  87 E9        29.95R
PITTSBURGH INT LGT RAIN  50  49  96 E7        29.93R
PITTSBURGH     LGT RAIN  50  46  86 NE5       29.92R
INDIANA*       PTSUNNY   52  48  87 VRB6      29.98R
LATROBE        PTSUNNY   54  48  82 NE9       29.94R
WASHINGTON CO* CLOUDY    50  46  87 NE8       29.93S
$$

PAZ004>006-010>012-017>019-024>028-033>037-041-042-045-046-049>053-251400-
CENTRAL PENNSYLVANIA

CITY           SKY/WX    TMP DP  RH WIND       PRES   REMARKS
BRADFORD       LGT RAIN  48  45  89 SE8       29.99S
DUBOIS         CLOUDY    50  45  83 E12       29.97R HAZE
CLEARFIELD     CLOUDY    50  46  86 NE8       30.00S
JOHNSTOWN      CLOUDY    47  45  93 E12G18    29.94R
ALTOONA        CLOUDY    50  46  86 NE9       29.98R
STATE COLLEGE  CLOUDY    50  45  81 NE5       30.00S
WILLIAMSPORT   LGT RAIN  53  46  77 E12       30.03R
SELINSGROVE    CLOUDY    53  50  89 NE5       30.03R
FT INDIANTOWN  CLOUDY    52  52 100 NE8       30.00F
CAPITAL CITY   CLOUDY    53  48  83 E8G20     29.99F
HARRISBURG     CLOUDY    53  49  86 E10       29.98F
YORK           CLOUDY    52  51  97 E16       29.96F
$$

PAZ038>040-043-044-047-048-054-055-060>062-067>071-251400-
EASTERN PENNSYLVANIA

CITY           SKY/WX    TMP DP  RH WIND       PRES   REMARKS
SCRANTON       CLOUDY    51  44  77 NE15G25   30.07R
MOUNT POCONO   CLOUDY    43  43 100 E14G22    30.07R
ALLENTOWN      CLOUDY    53  45  74 E17       30.05S
QUAKERTOWN*    CLOUDY    50  50 100 NE12G18   30.04F
READING        CLOUDY    52  51  97 N9        30.01F FOG
LANCASTER      CLOUDY    53  52  96 E16G24    29.98F
COATESVILLE    FOG       50  50 100 NE8G18    30.00S VSB 1/2
POTTSTOWN      CLOUDY    51  49  92 NE8G21    30.03S
BLUE BELL      CLOUDY    50  50 100 NE13      30.03R
DOYLESTOWN     CLOUDY    51  51 100 NE8G22    30.03S
WILLOW GROVE   NOT AVBL
NORTH PHILA    CLOUDY    53  51  93 NE18G25   30.04R FOG
PHILADELPHIA   CLOUDY    54  52  93 NE15G23   29.99S FOG
$$




USA.gov is the U.S. government's official web portal to all federal, state and local government web resources and services.